User: anonymous   Login
Location: Hokitika
(42.7170°S, 170.9670°E)
Time: 07:40:42
(UTC+13:00)
Language:

Cosmos 1763 Rocket - Orbit

View from above orbital plane
View from above orbital plane
View from above satellite
View from above satellite

Ground track
Ground track

The orbit data is extracted from the following two-line orbital elements,

1 16864U 86052B   19080.93375905 +.00000038 +00000-0 +20213-4 0  9998
2 16864 074.0310 344.6912 0034113 281.7466 077.9863 14.40535865715214
Epoch (UTC): 21 March 2019 22:24:36
Eccentricity: 0.0034113
inclination: 74.0310°
perigee height: 732 km
apogee height: 781 km
right ascension of ascending node: 344.6912°
argument of perigee: 281.7466°
revolutions per day: 14.40535865
mean anomaly at epoch: 77.9863°
orbit number at epoch: 71521

The dashed part of the orbit path shows where the satellite is in the earth's shadow,  

DLR